{"data":{"norad_id":63803,"intl_designator":"2025-091AD","name":"STARLINK-33951","alt_names":[],"object_type":"PAYLOAD","status":"ACTIVE","operator":null,"country":"US","launch_date":"2025-05-02","launch_site_code":"AFETR","launch_vehicle":null,"mission":null,"orbit_class":"UNKNOWN","rcs_meters":null,"size_class":null,"mass_kg":null,"dimensions":null,"purposes":["comms"],"wikipedia_slug":null,"has_3d_model":false,"image_url":null,"decayed_at":null,"tle_current":{"epoch":"2026-09-20T15:55:32.708928Z","epoch_age_seconds":135703,"freshness":"FRESH","line1":"1 63803U 25091AD  26263.66357302  .00015138  00000+0  55830-3 0  9999","line2":"2 63803  43.0043  31.1769 0000875 280.1853  79.8900 15.27591303 78778","mean_motion":15.27591303,"eccentricity":8.75e-5,"inclination_deg":43.0043,"raan_deg":31.1769,"arg_perigee_deg":280.1853,"mean_anomaly_deg":79.89,"bstar":0.0005583,"rev_number":7877,"period_min":94.266051212259,"perigee_km":482.41490017815,"apogee_km":483.61560182207,"semimajor_km":6861.1522510001,"source":"CELESTRAK","updated_at":"2026-09-21T09:00:35.103443Z"}}}